GEFSMA_500_meanwind_246.txt.gz
Wind_Speed
4 4 3 4 3 3 2 2 2 2 2 2 2 2 3 3 3 3 3 3 3 3 3 3 4 5 5 6 6 6 6 6 6 6 6 5 5 5 4 4 4 4 4
4 3 3 3 2 2 2 2 1 1 1 2 3 3 3 3 3 3 3 3 3 3 3 3 3 4 5 5 6 6 7 7 7 7 7 7 6 6 6 6 6 5 5
3 2 2 2 2 2 2 2 1 0 1 2 3 4 3 3 3 4 4 3 4 4 4 4 3 4 5 6 6 6 7 7 8 8 8 8 7 7 7 7 7 7 7
3 2 2 2 2 1 1 1 1 1 1 1 2 3 3 3 3 3 3 3 4 4 4 5 5 6 6 7 7 6 6 7 7 7 8 8 8 8 8 8 8 9 8
3 2 2 1 1 1 1 1 1 1 1 1 1 2 3 3 4 4 4 4 4 4 5 6 6 6 7 8 7 7 7 7 7 8 9 8 8 8 8 9 9 9 9
4 2 1 1 1 1 1 1 2 2 2 2 2 3 3 4 4 4 5 5 5 5 5 6 6 6 7 7 8 8 8 8 8 8 9 8 8 9 9 9 10 10 10
4 2 1 0 1 1 1 2 2 2 3 3 3 3 4 4 4 4 5 5 5 5 5 6 6 7 7 8 7 9 10 10 9 10 10 9 9 10 10 10 10 11 11
4 3 2 1 1 1 1 2 2 2 3 3 3 4 4 4 4 4 4 5 6 6 7 7 7 8 9 9 8 9 10 10 9 10 11 10 11 11 11 11 12 13 13
5 4 3 2 2 1 2 2 3 3 3 3 3 4 4 4 4 5 5 6 6 6 7 8 8 8 8 9 9 9 10 11 11 10 11 12 12 13 13 12 13 13 13
5 4 4 3 3 2 2 2 3 3 4 4 4 4 4 4 5 6 6 6 6 7 7 8 8 8 9 10 11 10 10 10 11 11 12 13 13 13 13 13 13 14 14
6 5 5 5 5 4 4 4 4 4 5 5 5 5 5 5 6 6 6 6 7 8 8 8 8 9 10 11 11 11 11 11 12 12 13 13 12 12 13 14 14 14 15
6 6 6 6 6 6 6 6 5 5 5 5 5 5 6 6 6 7 7 7 7 8 8 9 10 11 11 12 12 11 11 12 13 12 12 12 12 12 13 14 15 15 16
7 7 7 7 7 6 6 6 6 5 5 6 6 6 6 6 6 7 8 8 8 9 9 10 11 12 12 12 12 11 12 13 13 12 13 13 13 14 14 15 16 16 17
8 8 8 8 7 6 6 6 6 6 5 5 6 6 7 7 7 8 8 9 9 9 10 10 11 11 11 10 11 12 12 13 13 13 13 14 15 15 16 16 17 18 19
8 8 9 8 8 7 6 6 6 6 6 7 7 7 7 7 8 8 9 10 10 10 10 10 11 11 11 11 12 12 12 12 13 13 14 15 16 16 17 18 19 19 20
9 9 9 9 8 8 7 7 6 7 7 7 8 8 8 9 9 9 10 10 10 11 11 12 12 12 12 13 13 13 13 13 14 14 15 15 17 18 18 19 19 20 21
9 10 10 10 9 8 8 8 8 9 8 9 9 9 9 9 9 9 9 10 11 12 12 13 13 13 14 14 14 14 14 15 15 16 17 17 18 19 20 20 21 22 23
10 10 10 10 10 9 9 10 10 10 10 10 10 10 10 10 10 11 11 11 11 11 12 13 14 14 15 15 15 16 16 16 17 17 18 19 19 20 20 20 21 22 22
10 11 11 10 10 10 11 11 11 11 11 11 10 10 10 11 12 12 12 12 12 12 13 13 14 14 15 15 16 16 17 18 18 19 19 20 20 20 20 21 21 22 22
11 11 11 11 11 12 12 13 13 12 12 12 11 11 12 12 13 13 13 13 13 13 14 14 15 15 16 16 17 17 18 19 19 20 21 21 21 21 21 22 22 23 24
11 12 12 12 12 13 14 14 14 13 13 12 12 13 13 14 13 14 14 14 14 15 15 16 16 16 16 17 17 18 19 19 20 21 21 22 22 22 23 23 24 24 25
12 12 13 13 14 14 14 15 14 14 14 13 14 14 14 14 15 15 15 16 16 16 16 17 17 18 18 19 19 20 20 21 21 22 22 23 23 24 25 26 26 26 27
13 13 14 14 14 15 15 15 15 15 15 14 14 15 15 15 16 16 16 16 16 16 17 17 18 19 19 20 21 21 22 22 23 23 24 24 25 26 27 27 28 28 28
16 16 16 16 16 16 17 17 16 17 17 17 16 16 16 17 16 16 16 17 18 18 19 19 19 20 21 21 22 22 23 23 23 24 25 25 26 27 28 28 29 29 30
18 19 18 18 18 18 18 18 18 18 18 18 18 18 18 18 17 17 18 19 20 20 20 21 21 22 22 22 23 23 24 24 25 26 26 27 28 29 29 29 29 30 31
20 21 20 20 19 19 19 19 20 20 20 20 20 20 19 19 19 20 20 21 21 21 21 22 22 23 23 24 24 25 26 26 27 27 28 29 29 30 30 31 31 31 32

GEFSMA_500_meanwind_252.txt.gz
Wind_Speed
4 3 3 2 2 1 1 0 1 1 1 1 1 1 2 2 2 2 3 3 3 2 2 3 3 4 4 5 4 5 5 5 5 5 5 5 4 4 4 4 4 4 4
4 3 2 1 1 0 0 1 1 0 1 2 2 2 2 2 2 3 3 3 3 3 3 3 3 4 5 5 5 5 5 6 6 6 5 6 6 5 6 5 6 6 6
4 3 2 1 1 1 1 1 1 1 2 2 2 2 2 2 2 2 2 3 3 3 3 3 3 4 5 5 5 5 5 5 5 5 5 5 6 7 7 7 7 8 7
5 4 3 2 1 1 0 1 2 2 2 2 3 3 2 3 3 2 2 3 3 3 3 3 4 4 5 5 5 5 5 5 6 6 6 6 7 7 8 8 8 8 8
5 5 4 2 1 1 1 2 2 2 2 2 3 3 3 3 3 3 2 3 3 3 3 4 4 4 5 5 6 6 6 6 6 7 8 8 8 8 8 9 8 8 8
7 6 4 3 2 2 2 3 4 3 3 3 3 3 3 3 3 3 2 3 4 4 4 5 5 5 6 6 6 7 7 8 8 9 10 10 9 9 9 10 10 10 9
8 7 5 4 3 3 3 4 4 4 3 3 4 4 3 3 3 3 3 3 4 5 5 6 6 6 6 6 7 7 7 8 9 9 10 10 10 11 11 11 11 10 10
8 7 6 5 4 4 4 4 4 4 4 5 5 4 4 4 3 4 4 4 4 5 6 6 7 7 6 6 7 8 9 9 10 10 10 10 11 12 12 12 11 11 11
9 9 8 6 5 5 5 5 5 5 5 5 5 5 5 5 4 4 5 5 5 6 6 7 7 7 7 8 9 10 10 10 10 10 11 12 12 12 12 12 13 12 12
8 8 8 8 7 6 6 6 6 6 6 5 6 6 6 6 5 5 5 5 6 6 7 7 7 7 7 8 9 10 11 11 11 12 12 13 13 12 11 12 13 12 13
9 9 8 8 7 7 6 6 7 6 6 6 6 6 6 6 6 6 6 6 7 7 8 8 7 7 8 8 9 11 12 12 11 11 12 12 12 11 11 12 13 13 14
9 9 9 8 8 7 7 7 7 6 6 6 6 7 7 7 7 7 7 8 8 8 8 8 9 8 9 9 10 10 11 11 11 11 12 12 11 11 12 13 13 14 14
9 9 9 8 8 7 7 7 7 7 6 7 7 7 7 8 8 9 8 8 9 9 9 9 9 9 9 10 10 10 11 11 11 11 11 11 11 12 12 13 14 14 14
9 9 9 8 7 7 7 7 7 7 7 7 7 8 8 8 9 9 9 9 9 10 10 10 10 10 10 10 10 10 11 11 10 10 10 11 11 12 13 14 14 15 16
8 9 9 8 8 8 7 7 7 7 7 8 8 8 9 9 9 10 10 10 10 12 12 11 12 12 11 11 11 11 11 11 11 11 11 12 13 13 14 15 15 16 17
9 9 9 8 8 8 8 8 8 8 8 9 9 10 10 10 11 11 11 10 11 12 12 12 13 13 13 13 12 12 11 12 12 13 12 13 13 14 14 16 17 18 18
10 10 10 10 9 9 9 9 9 9 9 9 10 10 11 11 11 12 12 11 11 12 12 13 13 13 14 13 13 13 13 13 13 13 14 14 15 15 16 16 17 18 19
11 10 10 10 10 10 10 10 10 10 11 11 11 11 12 11 11 12 13 13 14 14 13 13 14 14 14 14 15 15 15 15 15 15 16 16 16 16 17 18 19 19 20
12 11 11 11 11 11 11 11 12 12 12 13 12 12 12 12 12 13 13 13 14 14 14 14 14 15 16 16 15 15 15 15 16 17 18 18 18 18 18 19 20 21 21
13 13 12 12 12 12 12 12 12 13 13 14 13 13 13 13 13 13 13 13 14 15 15 15 16 16 16 16 15 15 16 16 17 18 19 19 19 19 20 21 22 22 22
14 14 13 13 13 14 13 13 14 14 14 15 14 14 14 14 15 15 15 15 15 16 16 17 18 18 17 17 16 17 18 19 19 19 20 20 20 21 21 22 23 23 24
15 15 15 15 15 15 14 15 15 16 16 16 16 15 16 16 16 16 16 17 18 18 19 19 19 19 19 18 18 18 19 20 21 21 22 22 23 23 22 23 24 25 25
17 17 16 17 17 16 16 16 16 17 17 17 17 17 17 17 17 17 17 18 19 20 20 20 20 19 19 19 19 20 21 21 22 23 23 23 23 24 25 25 25 26 27
19 18 18 18 18 18 18 18 18 18 18 19 18 18 19 19 19 19 19 19 19 20 21 21 20 20 20 20 20 21 23 23 23 23 24 24 24 25 26 26 26 26 27
20 20 20 20 19 19 19 19 20 20 20 20 20 20 20 20 20 20 20 19 20 20 21 22 21 21 21 21 22 23 23 24 24 24 25 26 26 26 27 27 28 28 29
21 21 21 21 21 21 20 20 21 21 21 21 21 21 21 21 21 21 20 21 21 21 21 21 22 22 22 22 23 24 24 25 25 25 26 27 27 28 28 29 29 30 30

GEFSMA_500_meanwind_258.txt.gz
Wind_Speed
5 5 5 4 3 3 3 3 3 2 2 2 3 3 3 3 3 3 4 4 4 4 5 4 5 5 5 5 5 5 5 5 5 5 6 6 6 6 6 6 6 5 6
5 4 4 3 3 3 3 3 3 2 2 2 2 3 3 3 4 4 4 4 5 5 5 4 5 6 6 5 5 5 6 6 6 5 6 6 6 6 6 7 7 7 7
4 4 2 2 2 2 2 2 2 2 2 2 2 3 3 4 4 4 4 4 5 5 5 5 5 5 6 6 6 6 6 7 7 6 7 7 7 7 6 7 8 8 8
4 3 2 2 2 2 2 2 2 2 2 2 2 3 3 4 4 4 4 4 4 4 4 5 5 5 5 6 6 6 7 7 8 8 9 9 9 8 8 8 9 9 9
4 4 3 2 2 1 1 1 2 2 2 2 3 3 4 4 4 4 4 4 4 4 5 5 5 6 5 5 5 6 7 8 8 9 9 10 10 9 10 10 10 10 10
5 4 3 2 2 0 1 1 2 2 2 2 3 4 4 4 4 4 4 4 5 5 6 6 6 6 6 6 6 7 7 8 9 9 10 10 11 11 11 11 11 12 12
6 4 3 2 2 1 1 1 2 2 2 3 4 4 4 4 4 5 5 5 6 6 6 6 6 7 6 6 7 7 8 9 9 9 10 11 12 12 12 11 12 12 13
6 5 4 3 3 2 1 2 2 2 2 3 3 3 4 5 5 5 6 6 6 7 7 7 6 6 7 7 7 7 9 9 10 10 11 11 12 12 12 12 12 13 14
6 6 5 4 3 3 2 3 3 2 2 2 2 2 3 4 5 6 6 7 7 8 8 8 8 7 8 8 8 8 9 9 10 11 11 12 13 13 13 13 14 14 14
6 6 5 4 4 4 3 3 4 4 3 2 2 2 3 3 4 5 6 7 8 8 8 8 8 9 10 10 9 10 10 10 10 11 12 13 14 14 14 14 14 14 14
6 6 6 6 5 4 4 4 4 4 3 2 2 2 3 4 5 5 6 7 7 8 8 8 8 9 10 10 10 10 10 11 12 12 13 13 14 14 14 13 14 14 14
6 6 6 5 5 5 5 5 5 5 4 3 3 4 4 4 5 6 6 6 7 7 8 9 9 9 10 11 12 12 13 13 14 13 13 12 12 13 14 14 13 14 15
6 6 6 6 5 5 5 5 6 6 6 6 5 5 6 6 6 7 7 7 7 8 9 10 10 10 11 12 13 14 14 14 14 13 13 14 13 13 13 14 14 14 15
7 6 7 6 6 6 6 6 6 6 7 7 7 7 6 6 7 7 7 7 8 8 9 9 10 12 13 13 13 13 13 14 14 13 14 13 13 13 14 14 15 15 16
7 7 7 7 7 7 7 7 7 7 7 7 8 7 7 8 8 8 8 8 8 9 10 11 12 13 13 13 13 13 13 13 13 13 14 14 14 14 15 15 16 16 17
9 7 7 7 7 8 8 8 8 8 8 8 9 9 8 9 9 10 10 10 10 11 12 12 13 13 13 13 13 13 14 14 14 14 14 15 15 15 15 16 16 17 18
9 9 8 8 8 8 9 9 9 9 9 10 10 9 10 10 10 10 11 11 11 12 12 13 13 13 13 14 14 14 14 15 15 15 15 16 16 16 16 17 18 18 19
9 10 9 9 9 9 10 10 10 10 10 11 11 11 11 11 11 11 11 11 12 13 13 13 14 14 14 15 16 15 15 15 15 16 16 16 16 17 18 18 19 19 19
10 10 10 11 11 11 11 11 11 12 12 13 13 13 12 12 13 12 13 13 14 14 13 13 14 14 15 16 16 16 16 16 16 16 16 17 17 18 18 19 20 20 21
11 11 11 12 12 12 11 12 12 12 13 14 14 14 14 13 13 13 14 15 15 15 15 15 15 16 16 17 17 17 16 16 16 17 18 18 18 19 19 19 20 21 22
12 12 13 13 13 13 13 13 13 14 14 14 15 15 15 15 15 15 15 16 16 15 15 16 17 17 17 18 18 17 17 17 17 19 19 19 19 20 21 21 21 22 23
14 14 14 14 15 14 15 15 14 14 15 16 16 16 16 16 16 17 17 16 16 16 16 17 18 18 19 19 19 18 18 18 19 19 19 20 20 20 21 21 22 23 24
15 15 16 16 16 16 16 16 16 16 16 17 17 17 17 18 18 18 18 18 17 17 18 18 18 19 19 19 19 19 19 19 19 20 20 21 21 21 22 22 23 24 24
17 17 17 17 17 17 18 18 17 17 18 19 19 20 19 19 19 19 19 19 19 19 19 19 19 19 19 19 19 19 19 19 20 21 21 22 22 22 23 24 24 25 26
18 19 19 19 19 19 19 19 19 19 19 20 21 21 21 21 21 20 20 20 20 20 20 20 20 20 20 19 19 19 19 20 21 22 22 23 23 24 24 24 25 26 27
20 20 20 19 19 19 20 20 21 20 21 21 21 22 22 21 21 21 21 21 21 20 21 21 21 21 20 20 20 20 21 21 22 23 24 24 25 25 25 25 25 26 27

GEFSMA_500_meanwind_264.txt.gz
Wind_Speed
4 4 4 3 3 3 2 3 4 3 3 3 3 3 4 5 5 5 5 5 4 4 4 5 6 6 6 6 6 6 6 6 5 5 5 6 6 6 6 6 6 5 5
3 2 1 2 2 2 2 2 2 2 2 2 3 4 4 5 5 5 5 5 5 5 5 6 7 7 7 6 7 7 7 7 7 7 6 6 6 7 7 7 7 6 6
2 1 1 1 1 2 2 2 2 1 2 3 3 4 4 5 5 5 5 5 6 6 5 5 6 6 7 7 7 7 7 7 8 8 8 8 7 7 7 7 8 7 8
2 2 1 1 0 1 1 2 2 2 2 3 4 4 5 6 6 6 6 6 6 6 6 6 6 7 7 8 8 8 8 8 8 9 9 9 9 9 9 9 9 9 9
2 1 1 1 1 1 1 1 2 3 3 4 4 4 4 5 6 6 6 6 7 7 7 7 7 7 8 8 8 8 9 9 9 9 10 10 11 11 11 11 11 11 11
3 2 1 1 1 2 2 2 2 2 3 4 4 4 4 5 6 6 7 7 7 7 7 8 8 8 9 9 9 9 9 9 10 10 11 11 11 11 12 13 13 13 13
5 4 2 2 2 2 2 2 2 2 3 4 4 4 4 5 5 6 7 8 9 9 9 9 10 9 9 10 11 11 10 10 11 10 11 12 12 13 13 14 14 14 14
6 5 4 3 3 2 2 2 3 2 3 3 4 4 4 5 6 7 7 8 9 10 10 10 10 11 11 11 11 11 11 11 11 12 12 12 13 13 14 14 14 14 14
6 6 5 5 4 3 3 3 2 2 2 2 3 4 5 6 6 7 8 9 9 9 10 10 10 10 11 11 11 12 12 12 12 12 13 13 13 14 14 14 15 16 16
7 6 5 5 5 4 4 4 3 3 3 3 3 4 4 5 6 6 7 8 9 9 10 11 11 12 12 12 12 13 14 14 14 14 14 14 14 14 15 15 15 16 16
7 6 6 5 5 5 4 4 4 4 4 4 5 5 5 6 6 7 7 8 9 10 10 10 11 13 13 13 13 15 15 16 16 17 16 16 16 15 16 16 15 15 16
6 6 5 5 5 5 4 4 4 5 5 5 6 6 7 7 7 7 8 8 9 10 11 11 12 13 14 14 15 15 15 16 17 18 17 17 17 17 18 17 16 16 16
6 5 5 5 5 5 5 5 5 6 6 6 7 7 7 7 8 9 9 10 10 11 11 12 12 12 13 14 15 15 16 15 16 16 16 17 17 18 17 17 17 17 17
6 5 5 5 6 6 6 6 6 6 7 8 8 8 8 8 9 9 10 11 11 11 11 12 13 14 14 14 15 16 16 17 17 17 17 17 17 18 18 17 18 18 18
6 6 6 6 7 7 7 7 7 7 8 9 9 9 9 9 10 10 10 11 12 12 12 13 13 14 14 15 15 16 16 16 17 17 17 18 18 19 19 19 18 18 19
7 7 7 8 8 9 9 9 8 9 9 10 10 11 11 10 11 11 12 12 12 13 13 13 13 14 15 15 16 16 16 16 18 18 18 18 18 19 19 19 20 19 19
8 8 8 9 9 10 10 10 10 10 10 11 11 12 12 12 12 13 13 14 14 14 14 14 15 16 16 17 17 18 18 18 18 17 17 18 19 20 20 21 21 20 20
10 10 10 11 11 11 11 11 11 11 12 12 12 13 13 13 13 14 14 15 15 15 15 15 16 17 17 18 19 19 19 19 18 18 18 19 20 20 21 20 21 21 21
11 12 12 12 12 13 13 13 13 13 13 13 14 14 14 15 14 14 15 15 16 16 16 16 16 17 17 18 18 18 19 19 18 19 19 19 20 21 21 21 21 21 21
13 13 14 14 14 14 14 15 15 15 15 15 15 15 16 16 16 15 16 16 17 17 17 17 18 18 19 19 20 19 19 19 20 20 20 20 21 21 21 22 22 22 22
14 15 15 15 15 15 15 15 16 17 16 16 16 16 16 17 18 18 18 18 18 19 19 20 20 20 20 21 21 21 21 21 21 21 21 21 21 21 22 22 23 23 23
17 17 16 16 16 17 17 17 17 18 18 18 18 18 19 19 19 20 20 20 20 21 21 21 22 22 22 21 21 21 21 21 21 22 22 22 22 23 23 23 23 24 24
18 18 17 17 17 18 19 19 19 19 19 19 19 19 20 20 21 21 21 21 21 22 22 22 23 23 23 22 22 22 23 23 23 23 23 23 23 23 24 25 25 25 25
20 20 20 19 19 20 20 20 20 21 21 21 21 21 22 22 21 22 22 22 22 22 23 23 23 23 23 23 24 24 24 24 24 24 24 24 23 24 25 25 26 27 27
22 22 22 22 22 22 21 21 22 22 22 22 22 22 23 23 22 22 23 23 23 23 24 24 23 24 24 25 25 25 24 25 25 25 25 25 25 26 26 27 27 28 28
24 23 24 23 23 23 23 23 23 23 23 22 23 23 23 23 23 23 23 23 23 23 24 25 24 24 25 25 25 24 23 24 25 24 25 25 25 26 26 27 28 28 28

GEFSMA_500_meanwind_270.txt.gz
Wind_Speed
5 3 2 3 3 4 5 5 4 4 4 4 5 5 4 4 4 5 5 5 5 5 6 6 6 6 6 6 6 6 6 6 5 6 5 5 5 6 6 6 7 7 7
3 2 2 2 2 3 4 5 4 4 4 4 4 4 4 4 5 5 6 6 6 6 7 7 7 7 7 7 7 8 8 7 7 7 7 7 7 7 7 7 8 8 7
2 1 1 0 1 2 3 4 4 5 4 4 4 4 4 5 5 6 6 6 7 7 7 7 7 7 8 8 8 9 9 8 8 8 8 8 8 8 9 9 9 10 10
1 1 1 1 1 2 2 3 4 4 4 4 4 4 5 5 6 6 7 7 7 7 7 7 7 7 8 9 9 9 10 10 10 9 9 9 9 10 10 10 10 11 11
2 1 1 1 1 1 1 2 3 3 4 5 5 5 5 6 6 5 6 6 7 7 7 7 8 8 8 9 9 10 10 11 11 11 11 11 10 11 11 11 12 12 13
2 1 1 0 1 1 2 2 3 3 3 4 5 5 5 5 5 5 6 6 6 7 7 8 8 8 9 10 10 11 11 12 12 12 12 13 12 12 12 12 13 13 13
3 3 2 1 0 1 1 2 2 2 3 3 4 5 5 5 5 6 6 6 7 7 8 8 8 9 10 11 11 11 12 12 12 12 13 13 13 13 13 13 14 14 14
4 3 3 2 1 0 1 1 1 1 2 2 3 4 5 5 5 6 7 7 8 8 9 9 9 10 10 11 12 12 13 13 13 13 13 14 14 14 14 15 15 15 15
4 4 4 3 2 1 0 0 1 1 1 2 3 4 4 5 6 6 7 8 8 9 10 10 9 9 11 11 12 12 13 14 14 14 14 15 14 14 15 15 15 15 15
5 4 3 3 2 2 0 0 1 1 2 2 3 4 5 6 7 7 7 8 8 9 9 10 10 11 11 11 12 13 13 14 15 15 15 15 15 16 15 16 16 16 17
5 4 3 3 2 2 1 1 2 2 3 4 4 5 6 7 7 8 8 8 8 9 9 10 10 11 11 11 12 13 14 15 16 17 17 17 16 17 18 18 18 18 17
6 5 4 3 3 3 3 2 3 3 4 5 5 6 6 7 7 8 8 9 9 9 10 10 11 12 12 12 13 13 14 15 16 17 18 18 18 19 18 19 19 18 18
5 5 4 4 4 4 4 4 4 4 5 6 6 7 7 8 8 8 8 9 10 10 10 11 11 12 12 12 13 15 15 16 17 17 18 19 19 18 19 19 20 19 19
6 5 5 5 5 5 5 5 5 6 6 6 7 8 9 9 8 8 9 10 10 11 12 12 13 13 13 13 13 13 15 16 17 17 17 17 17 17 19 19 19 19 20
7 6 6 6 6 6 6 7 7 7 8 8 8 9 9 10 9 10 10 10 11 12 13 13 14 15 15 14 14 14 14 14 15 16 16 15 16 16 17 18 19 19 19
8 8 8 8 8 8 8 8 8 9 9 9 10 10 10 10 11 11 11 12 12 12 13 15 15 16 15 15 15 15 15 15 16 16 16 16 16 16 17 17 18 19 19
9 9 9 9 9 9 9 9 9 10 10 11 11 11 11 12 12 12 13 13 14 14 15 15 16 16 16 16 17 16 16 17 17 18 18 17 17 18 18 18 18 19 19
11 11 11 11 11 11 11 10 10 11 11 12 12 12 12 13 13 14 14 15 15 16 16 16 15 16 16 16 16 17 18 18 18 18 18 18 19 20 20 19 20 20 20
12 12 12 13 13 12 12 12 12 12 12 12 13 13 14 14 15 15 16 16 16 17 17 17 17 17 17 18 18 18 19 19 19 19 20 20 21 21 20 20 21 22 22
13 13 13 14 14 14 14 14 13 13 13 14 15 15 15 15 16 16 17 17 18 18 18 18 18 18 18 18 18 18 19 19 20 21 21 21 22 22 21 21 22 23 24
15 15 14 14 15 15 15 15 15 15 15 15 16 16 16 17 17 17 18 18 18 18 18 19 19 19 19 19 18 18 19 20 21 22 23 22 23 24 23 24 24 24 24
16 17 16 15 16 16 16 16 16 16 16 17 17 17 17 17 18 18 18 19 19 19 19 19 19 19 19 20 19 20 20 21 22 22 22 23 24 24 24 23 24 24 24
18 18 17 17 17 17 17 17 17 18 18 18 18 18 17 18 18 19 19 19 19 20 20 20 20 20 21 21 21 22 22 23 23 23 23 23 24 24 24 24 25 25 25
19 19 19 19 18 18 18 18 19 19 19 19 19 19 19 19 20 20 20 21 21 21 21 21 21 21 22 22 22 23 23 23 24 24 24 24 24 25 25 25 25 25 25
21 20 20 20 20 21 21 20 20 20 20 20 20 20 21 21 21 22 22 22 22 22 22 22 23 23 23 23 23 23 23 24 25 25 25 26 25 26 26 26 26 26 26
22 23 23 23 23 23 23 22 22 22 22 22 23 23 23 23 23 23 23 23 23 22 23 23 23 23 24 24 24 24 24 24 25 25 25 25 25 26 26 26 26 25 25

GEFSMA_500_meanwind_276.txt.gz
Wind_Speed
3 3 2 1 1 2 1 2 3 4 5 4 4 4 3 3 3 2 3 4 4 4 4 4 4 4 5 5 5 6 6 6 6 6 6 6 6 5 5 5 5 6 5
2 2 2 1 0 1 0 1 3 4 5 5 5 4 4 4 3 3 3 4 4 5 5 5 5 5 5 6 6 7 7 7 7 7 7 7 7 7 7 7 7 7 7
2 1 1 1 1 1 1 2 2 3 4 5 5 4 3 3 4 4 4 4 4 4 5 5 5 6 6 6 7 7 8 8 9 8 8 8 7 8 8 8 8 8 9
3 2 1 1 1 2 2 2 2 3 3 4 4 4 3 4 4 5 5 5 5 5 5 6 6 7 7 7 8 8 8 9 10 10 10 9 9 8 9 10 9 10 10
4 3 2 2 3 4 4 4 4 3 2 3 3 4 4 5 5 5 5 5 5 5 5 6 7 8 8 8 8 9 9 9 10 10 10 11 11 10 10 10 11 11 11
5 4 3 3 4 4 4 4 4 3 3 3 2 3 3 4 4 5 5 5 5 6 6 7 7 8 8 8 9 9 10 10 11 11 12 12 12 12 12 12 12 12 12
5 5 4 4 3 3 4 4 4 3 3 2 2 2 2 3 4 5 5 5 6 7 7 8 9 9 9 9 10 10 10 11 12 12 13 13 13 13 13 13 13 13 13
6 5 5 4 4 4 3 3 2 3 3 3 3 3 3 4 4 5 6 6 7 7 8 9 9 10 10 10 10 11 11 11 12 12 13 13 14 13 13 14 14 15 15
7 6 5 5 5 4 4 4 3 3 3 3 4 4 5 5 6 6 7 7 7 8 9 9 10 10 10 10 11 11 11 11 12 12 13 14 14 14 14 14 14 15 16
7 6 6 5 5 5 5 5 4 4 4 5 5 5 6 6 6 6 7 8 9 9 9 10 10 11 12 12 12 12 12 12 12 13 14 15 15 15 15 15 15 16 17
8 7 6 6 6 5 5 5 5 5 5 5 6 6 7 7 7 7 8 9 10 10 10 10 11 12 12 13 13 13 13 14 13 14 14 15 15 16 16 16 17 18 17
8 7 7 7 7 6 6 6 6 6 6 6 7 7 8 9 10 9 9 9 10 10 10 10 11 12 13 13 13 14 14 14 14 15 16 16 16 16 16 17 17 18 18
9 8 8 8 8 7 7 7 7 7 7 8 8 9 10 10 10 11 11 11 11 11 11 12 12 12 13 13 13 13 14 14 14 15 16 16 16 16 17 17 18 17 18
10 10 9 9 9 8 8 8 8 8 9 9 10 10 11 11 11 12 12 12 12 12 12 12 12 12 13 13 14 14 14 15 15 15 16 16 15 16 16 16 17 17 17
10 10 10 10 10 10 9 10 10 10 10 11 11 11 11 11 11 12 12 12 12 12 12 12 13 14 14 15 16 16 16 16 16 16 17 17 16 16 16 16 16 17 17
12 11 11 10 10 10 10 11 11 11 11 12 12 12 12 12 12 12 13 13 13 13 13 14 15 15 16 17 17 17 17 17 17 17 18 18 17 17 16 16 17 17 18
13 12 12 11 11 11 11 11 12 12 12 13 13 13 13 13 14 14 14 13 13 14 14 14 15 16 17 18 18 18 19 18 18 18 19 18 17 18 17 18 18 19 19
13 13 12 12 12 12 12 12 12 13 14 13 14 14 14 15 15 15 15 15 15 15 15 15 16 17 18 18 19 20 19 19 18 18 18 18 18 19 18 19 19 20 20
13 13 14 13 13 13 13 13 13 13 14 14 15 15 16 16 16 16 16 16 16 16 17 17 18 18 19 19 20 20 19 19 18 18 19 19 19 19 20 20 21 21 21
14 14 14 14 14 14 14 14 15 15 15 16 16 16 16 16 17 17 17 18 18 18 19 19 19 19 19 20 20 20 19 19 19 20 20 20 20 20 20 21 22 22 22
16 15 16 16 16 16 15 15 16 16 17 17 17 17 17 18 18 18 19 19 19 20 20 20 20 20 20 21 21 20 20 19 19 20 20 21 21 20 20 22 23 23 23
18 18 18 18 18 18 18 17 17 17 18 18 18 18 18 19 19 19 19 19 20 21 21 21 20 20 20 21 21 20 20 20 20 20 20 21 21 21 22 23 23 24 24
21 20 20 20 20 20 20 20 19 19 19 20 20 19 20 20 20 21 20 20 20 21 21 21 21 21 21 21 21 21 21 21 21 21 21 21 22 22 22 23 23 24 24
23 23 23 22 22 22 22 22 21 21 21 21 21 21 21 21 21 22 21 21 21 21 22 22 22 22 22 22 22 23 23 23 22 23 23 23 23 23 23 23 24 24 24
25 25 25 25 24 23 24 24 24 23 23 23 23 23 23 24 23 23 23 22 22 23 23 24 23 23 23 23 23 24 25 25 24 23 23 23 23 23 23 23 23 23 23
28 28 27 26 26 26 26 25 26 25 25 25 25 25 25 25 25 25 25 24 24 24 25 25 24 24 24 24 25 25 25 25 25 24 23 23 23 23 23 23 23 22 23

GEFSMA_500_meanwind_282.txt.gz
Wind_Speed
4 3 3 2 2 2 3 4 3 4 6 7 7 7 6 6 5 5 5 5 4 4 4 4 4 4 5 5 6 7 7 7 7 7 6 6 6 5 5 5 5 6 6
5 4 3 2 2 3 2 1 2 2 3 5 7 6 5 6 6 6 6 5 5 5 5 5 5 5 5 6 7 8 8 8 8 8 8 8 8 7 7 6 6 6 7
4 3 3 3 2 1 2 1 1 0 1 2 4 5 5 6 6 7 6 5 5 6 6 6 6 6 6 6 8 8 8 8 9 9 9 9 9 9 9 9 9 9 9
4 3 3 2 2 2 1 1 0 0 1 2 3 4 4 4 5 6 6 6 6 6 6 6 6 6 6 6 7 8 8 9 9 9 10 10 11 11 10 10 11 11 11
5 3 2 2 3 2 2 1 1 1 1 2 3 4 4 5 4 4 5 6 6 6 6 6 7 6 7 7 7 7 8 9 9 10 10 10 11 11 12 11 12 12 13
5 4 3 3 3 3 2 2 1 0 1 1 2 3 3 4 4 3 4 5 6 7 7 7 7 7 7 7 7 8 8 9 10 11 11 11 12 12 13 13 12 13 13
5 5 4 3 3 3 3 2 2 1 1 1 0 1 2 2 3 3 4 5 6 7 7 7 8 8 8 8 8 9 9 9 10 11 12 12 12 13 13 14 13 13 13
5 5 5 4 4 3 3 3 2 2 1 1 1 2 2 3 4 4 5 6 7 8 8 8 8 9 8 9 9 9 10 10 11 12 13 13 13 14 14 15 15 15 15
5 4 4 4 4 3 3 3 3 2 2 2 3 3 4 4 5 6 6 7 7 8 9 9 9 10 9 10 10 10 11 11 11 12 13 14 15 15 15 15 15 16 17
5 4 4 4 3 3 3 4 3 3 3 3 3 4 5 6 6 7 7 7 8 9 9 10 10 11 11 11 11 11 11 13 13 13 13 14 15 15 16 16 16 17 18
5 5 4 4 4 4 4 4 3 4 4 4 5 5 6 7 7 7 8 9 9 9 10 11 11 11 12 13 13 13 13 14 14 13 14 15 16 17 17 17 17 18 18
6 6 5 4 5 5 5 4 4 5 5 5 6 6 7 7 8 8 9 9 9 9 9 10 11 12 13 13 14 13 14 14 14 14 14 14 15 17 18 19 18 18 17
7 6 6 5 5 5 5 6 5 5 6 7 7 8 8 8 9 9 9 10 10 10 10 11 11 12 13 13 14 13 13 14 14 15 14 14 15 16 17 18 17 17 17
8 7 6 6 6 5 5 6 6 7 7 8 8 9 9 9 10 10 11 11 11 12 12 12 13 13 13 13 14 14 14 15 16 15 15 15 16 17 17 17 17 17 17
8 8 7 7 6 6 6 6 7 7 8 8 8 9 10 10 11 11 12 12 12 13 13 13 13 14 14 14 14 15 16 16 17 17 17 16 17 17 17 17 17 17 18
9 8 8 8 7 7 7 7 8 9 9 9 9 10 10 11 12 12 12 12 13 12 12 13 13 14 15 15 15 16 16 17 18 18 17 17 17 17 17 17 18 18 18
10 10 10 9 9 8 8 8 9 9 10 10 11 11 12 12 12 12 12 13 13 13 13 13 14 15 16 16 17 17 17 17 17 17 17 17 18 17 17 18 19 19 19
11 11 11 11 11 10 10 10 10 11 12 12 13 13 14 14 14 14 14 14 14 15 15 15 15 16 16 17 18 18 18 18 18 18 18 19 18 18 18 19 19 19 20
11 12 12 12 13 13 14 14 14 14 14 14 15 15 15 15 15 15 14 14 15 15 16 17 17 17 17 17 18 18 19 19 18 18 19 19 19 19 19 19 19 20 21
13 13 14 14 14 15 15 15 16 16 16 16 16 16 16 16 16 17 17 17 16 16 17 18 18 17 17 17 18 18 19 19 19 19 19 19 20 20 20 20 21 21 22
15 15 15 16 16 16 16 17 17 18 18 17 17 17 17 17 18 18 18 18 17 17 17 17 17 17 17 17 18 19 19 19 20 19 19 20 21 21 21 22 23 23 23
18 18 17 18 17 17 18 19 19 19 19 19 18 18 18 18 18 18 19 19 19 19 19 18 18 18 18 18 19 20 19 19 19 20 20 21 21 22 23 24 24 24 24
20 20 20 20 19 19 20 20 21 21 20 20 20 20 20 20 19 19 19 19 20 20 20 19 19 19 19 19 19 19 19 20 20 20 19 19 20 21 22 23 23 24 24
22 22 22 22 21 21 22 22 22 22 22 21 21 21 21 21 21 21 20 20 20 21 21 21 20 19 19 19 19 20 20 21 21 20 19 19 19 20 20 21 22 23 23
24 24 24 24 24 23 23 23 23 24 23 23 22 22 23 22 22 22 22 22 21 21 22 22 22 21 20 20 21 21 21 22 21 20 20 20 20 21 21 20 21 22 23
26 25 25 25 25 25 25 25 25 25 24 24 24 24 24 23 23 23 23 23 22 23 23 23 23 23 23 23 22 22 23 23 23 22 21 21 21 21 21 21 21 22 22

GEFSMA_500_meanwind_288.txt.gz
Wind_Speed
4 3 3 3 2 1 2 2 2 3 4 4 4 5 6 6 6 6 6 7 7 7 7 7 7 7 7 7 8 8 8 7 7 7 7 7 7 7 6 6 6 6 6
4 4 3 2 1 0 2 3 2 3 3 2 3 4 6 7 6 6 6 7 7 8 8 8 8 8 8 7 8 8 8 8 9 9 8 8 8 9 9 8 8 8 8
4 3 2 2 1 1 2 3 2 3 3 3 4 4 5 7 6 6 7 7 7 7 7 8 8 8 8 8 8 9 9 9 10 9 10 10 10 9 9 10 10 10 10
3 2 1 1 1 1 2 1 2 3 3 4 4 5 5 5 6 7 7 7 7 8 8 9 8 8 9 9 9 9 9 10 10 10 11 11 11 11 11 11 11 11 11
3 2 2 2 2 2 2 2 3 3 3 4 4 4 4 5 5 6 7 7 7 8 8 8 8 9 9 9 9 10 10 10 10 11 11 11 12 12 12 12 12 12 13
3 3 2 2 2 2 2 2 3 3 4 4 4 5 5 6 6 7 7 8 7 8 8 9 10 10 10 10 10 10 10 11 11 12 12 12 13 13 13 13 13 13 13
3 2 2 3 2 2 2 3 3 4 4 4 5 5 5 6 6 7 7 7 8 9 9 10 10 10 11 11 11 11 11 11 12 13 13 13 14 14 15 14 14 14 14
4 3 3 3 3 3 3 3 4 4 4 5 5 6 6 7 7 8 8 9 10 10 10 10 11 10 11 12 12 12 12 13 13 13 14 15 15 16 16 16 16 16 15
4 3 3 3 3 3 4 4 4 4 5 6 6 7 7 8 8 9 9 10 10 10 11 11 11 12 12 13 13 13 12 13 14 14 15 15 16 16 17 17 17 17 17
4 4 4 4 4 4 4 5 5 6 6 6 6 6 8 8 9 9 9 9 10 10 11 11 12 12 13 13 13 13 13 14 14 15 15 15 15 16 16 17 18 18 18
5 5 5 5 5 5 5 5 6 6 7 6 6 7 7 8 8 9 9 10 10 11 11 11 12 13 13 14 14 14 14 14 15 15 16 16 16 17 17 18 19 19 19
6 6 6 6 6 6 6 6 6 6 7 7 7 8 9 9 9 10 10 10 11 11 12 12 12 13 14 14 15 15 16 16 16 16 17 18 17 17 18 19 19 20 20
6 6 7 7 6 7 7 8 8 7 8 8 9 9 10 10 11 11 11 11 11 11 12 12 13 14 14 14 15 16 17 17 17 17 17 18 18 18 18 18 18 19 19
8 7 7 7 8 8 8 8 9 9 9 9 10 10 11 11 11 11 11 12 12 13 13 13 14 15 16 16 16 18 19 19 19 18 19 19 19 20 19 19 18 18 19
9 8 8 8 8 9 9 10 11 10 11 11 11 12 12 12 13 13 13 13 13 13 13 14 15 15 16 17 18 18 19 19 19 19 19 19 20 19 19 18 18 18 19
9 9 9 9 9 9 10 11 12 12 13 12 13 13 13 14 14 14 14 14 14 15 15 15 16 17 17 17 18 19 18 18 19 19 20 20 20 20 20 20 20 20 20
10 10 10 11 11 11 12 12 13 14 14 14 14 14 14 15 14 14 14 15 16 16 16 16 17 18 18 18 19 19 19 19 19 20 20 20 20 21 20 21 21 21 20
12 12 12 13 13 13 13 14 14 14 15 15 15 15 15 15 15 16 16 16 16 17 17 18 18 19 19 19 19 19 19 19 19 19 19 19 19 20 20 20 20 21 20
14 14 15 15 14 14 15 15 15 16 16 16 16 17 16 16 16 16 17 17 18 19 19 19 19 19 20 20 20 20 20 19 19 19 19 19 19 20 20 20 20 21 20
16 17 17 17 16 16 16 16 17 18 18 18 18 18 19 19 18 18 18 19 20 20 20 20 20 20 20 20 19 20 20 19 19 20 20 20 20 20 19 19 20 20 20
18 18 19 18 18 17 18 18 18 18 19 19 19 20 20 20 19 20 20 20 20 20 20 21 21 21 21 20 20 20 20 20 20 20 19 20 20 20 20 20 20 20 21
20 20 19 19 19 19 20 20 20 20 20 20 20 20 20 21 21 21 21 21 21 21 21 21 21 22 22 22 22 22 21 21 20 20 20 20 20 20 19 19 19 21 23
22 21 21 21 21 21 22 22 22 22 22 21 21 21 21 22 22 22 22 22 22 22 22 22 22 23 23 23 23 23 22 21 21 20 20 19 19 20 21 22 22 23 24
24 23 23 23 23 23 23 23 24 24 24 23 23 23 23 23 22 22 23 23 22 23 24 24 23 23 24 24 24 23 23 22 21 21 21 20 20 22 22 23 23 23 23
26 25 25 25 24 25 25 25 26 25 25 24 24 24 24 24 23 23 23 23 22 22 23 23 23 23 23 23 23 23 23 23 22 22 22 23 22 23 23 23 23 24 24
27 27 26 26 26 26 27 27 27 27 26 26 26 26 25 25 25 25 25 25 24 23 23 23 23 24 24 24 24 24 24 23 23 22 22 23 23 23 24 24 24 24 24